Location: Ajisawe
(8.4333°N, 4.3833°E)
Time: 07:14:03
(UTC+00:00)

A-11 Canister half - Pass Details

Date: 20 April 2021
Orbit: 1514 x 1685 km, 47.2° (Epoch: 12 May)

Event Time Altitude Azimuth Distance (km) Brightness Sun altitude
Rises 19:57:39 0° 260° (W) 4,649 12.4 -30.8°
Reaches altitude 10° 20:01:51 10° 277° (W) 3,674 11.8 -31.8°
Maximum altitude 20:08:01 20° 320° (NW) 3,009 11.0 -33.3°
Drops below altitude 10° 20:14:19 10° 3° (N) 3,728 11.2 -34.7°
Sets 20:18:40 0° 20° (NNE) 4,740 11.6 -35.7°
